Time,TemperatureF,DewpointF,PressureIn,WindDirection,WindDirectionDegrees,WindSpeedMPH,WindSpeedGustMPH,Humidity,HourlyPrecipIn,Conditions,Clouds,dailyrainin,SoftwareType,DateUTC
2013-06-03 00:01:00,44.4,41.4,29.97,East,90,0.0,0.0,89,0.00,,,0.00,meteobridge,2013-06-03 04:01:00,
2013-06-03 00:02:00,44.4,41.4,29.98,East,90,0.0,0.0,89,0.00,,,0.00,meteobridge,2013-06-03 04:02:00,
2013-06-03 00:03:00,44.4,41.4,29.97,East,90,0.0,0.0,89,0.00,,,0.00,meteobridge,2013-06-03 04:03:00,
2013-06-03 00:06:00,44.4,41.4,29.97,East,90,0.0,0.0,89,0.00,,,0.00,meteobridge,2013-06-03 04:06:00,
2013-06-03 00:11:00,44.2,41.2,29.98,East,90,1.6,1.6,89,0.00,,,0.00,meteobridge,2013-06-03 04:11:00,
2013-06-03 00:17:00,44.1,41.4,29.98,East,90,0.7,1.6,90,0.00,,,0.00,meteobridge,2013-06-03 04:17:00,
2013-06-03 00:22:00,43.9,41.2,29.98,East,90,1.6,1.6,90,0.00,,,0.00,meteobridge,2013-06-03 04:22:00,
2013-06-03 00:28:00,43.9,41.4,29.98,East,90,1.6,2.2,91,0.00,,,0.00,meteobridge,2013-06-03 04:28:00,
2013-06-03 00:34:00,43.9,41.7,29.98,East,90,0.7,1.6,92,0.00,,,0.00,meteobridge,2013-06-03 04:34:00,
2013-06-03 00:39:00,43.5,41.4,29.98,SE,135,0.0,1.6,92,0.00,,,0.00,meteobridge,2013-06-03 04:39:00,
2013-06-03 00:45:00,43.3,41.2,29.98,SE,135,0.7,1.6,92,0.00,,,0.00,meteobridge,2013-06-03 04:45:00,
2013-06-03 00:50:00,43.3,41.2,29.98,East,90,1.6,1.6,92,0.00,,,0.00,meteobridge,2013-06-03 04:50:00,
2013-06-03 00:56:00,43.3,41.5,29.98,East,90,0.7,1.6,93,0.00,,,0.00,meteobridge,2013-06-03 04:56:00,
2013-06-03 01:01:00,43.3,41.5,29.98,East,90,0.0,0.0,93,0.00,,,0.00,meteobridge,2013-06-03 05:01:00,
2013-06-03 01:06:00,43.2,41.4,29.98,East,90,0.7,0.7,93,0.00,,,0.00,meteobridge,2013-06-03 05:06:00,
2013-06-03 01:12:00,43.2,41.5,29.98,East,90,0.0,0.7,94,0.00,,,0.00,meteobridge,2013-06-03 05:12:00,
2013-06-03 01:17:00,43.2,41.5,29.98,East,90,0.0,0.7,94,0.00,,,0.00,meteobridge,2013-06-03 05:17:00,
2013-06-03 01:23:00,43.3,41.7,29.98,East,90,1.6,2.2,94,0.00,,,0.00,meteobridge,2013-06-03 05:23:00,
2013-06-03 01:29:00,43.2,41.5,29.98,East,90,0.0,1.6,94,0.00,,,0.00,meteobridge,2013-06-03 05:29:00,
2013-06-03 01:34:00,43.0,41.4,29.98,East,90,0.0,0.0,94,0.00,,,0.00,meteobridge,2013-06-03 05:34:00,
2013-06-03 01:40:00,43.0,41.7,29.98,East,90,1.6,1.6,95,0.00,,,0.00,meteobridge,2013-06-03 05:40:00,
2013-06-03 01:45:00,43.2,41.9,29.98,East,90,0.7,1.6,95,0.00,,,0.00,meteobridge,2013-06-03 05:45:00,
2013-06-03 01:51:00,43.3,42.1,29.99,East,90,0.0,1.6,95,0.00,,,0.00,meteobridge,2013-06-03 05:51:00,
2013-06-03 01:56:00,43.2,41.9,29.99,East,90,0.0,0.0,95,0.00,,,0.00,meteobridge,2013-06-03 05:56:00,
2013-06-03 02:02:00,43.0,41.7,29.98,East,90,0.0,0.0,95,0.00,,,0.00,meteobridge,2013-06-03 06:02:00,
2013-06-03 02:07:00,43.2,42.1,29.99,East,90,0.0,0.0,96,0.00,,,0.00,meteobridge,2013-06-03 06:07:00,
2013-06-03 02:13:00,43.2,42.1,29.99,East,90,1.6,1.6,96,0.00,,,0.00,meteobridge,2013-06-03 06:13:00,
2013-06-03 02:19:00,43.3,42.3,29.99,East,90,0.0,1.6,96,0.00,,,0.00,meteobridge,2013-06-03 06:19:00,
2013-06-03 02:24:00,43.3,42.3,29.99,East,90,0.0,0.0,96,0.00,,,0.00,meteobridge,2013-06-03 06:24:00,
2013-06-03 02:30:00,43.2,42.1,29.99,East,90,1.6,1.6,96,0.00,,,0.00,meteobridge,2013-06-03 06:30:00,
2013-06-03 02:35:00,43.0,41.9,29.99,East,90,1.6,1.6,96,0.00,,,0.00,meteobridge,2013-06-03 06:35:00,
2013-06-03 02:41:00,43.0,41.9,29.99,East,90,1.6,1.6,96,0.00,,,0.00,meteobridge,2013-06-03 06:41:00,
2013-06-03 02:47:00,43.0,41.7,29.99,East,90,0.0,0.0,95,0.00,,,0.00,meteobridge,2013-06-03 06:47:00,
2013-06-03 02:52:00,43.0,41.7,29.99,NE,45,0.0,0.0,95,0.00,,,0.00,meteobridge,2013-06-03 06:52:00,
2013-06-03 02:58:00,43.5,42.4,29.99,North,0,0.0,0.0,96,0.00,,,0.00,meteobridge,2013-06-03 06:58:00,
2013-06-03 03:04:00,43.0,41.9,29.99,East,90,0.0,0.0,96,0.00,,,0.00,meteobridge,2013-06-03 07:04:00,
2013-06-03 03:09:00,43.0,41.9,29.99,East,90,0.0,0.0,96,0.00,,,0.00,meteobridge,2013-06-03 07:09:00,
2013-06-03 03:15:00,43.3,42.3,29.99,North,0,0.0,0.0,96,0.00,,,0.00,meteobridge,2013-06-03 07:15:00,
2013-06-03 03:21:00,43.0,41.9,29.99,North,0,0.0,1.6,96,0.00,,,0.00,meteobridge,2013-06-03 07:21:00,
2013-06-03 03:26:00,43.2,42.1,29.99,North,0,0.0,0.0,96,0.00,,,0.00,meteobridge,2013-06-03 07:26:00,
2013-06-03 03:32:00,42.8,41.5,29.99,East,90,0.0,0.0,95,0.00,,,0.00,meteobridge,2013-06-03 07:32:00,
2013-06-03 03:37:00,43.0,41.7,29.99,East,90,1.6,1.6,95,0.00,,,0.00,meteobridge,2013-06-03 07:37:00,
2013-06-03 03:43:00,43.0,41.7,29.99,East,90,1.6,1.6,95,0.00,,,0.00,meteobridge,2013-06-03 07:43:00,
2013-06-03 03:49:00,42.8,41.5,29.99,NE,45,1.6,1.6,95,0.00,,,0.00,meteobridge,2013-06-03 07:49:00,
2013-06-03 03:54:00,43.0,41.7,29.99,East,90,0.0,0.0,95,0.00,,,0.00,meteobridge,2013-06-03 07:54:00,
2013-06-03 04:00:00,42.8,41.5,29.99,East,90,1.6,1.6,95,0.00,,,0.00,meteobridge,2013-06-03 08:00:00,
2013-06-03 04:06:00,42.8,41.5,29.99,East,90,1.6,1.6,95,0.00,,,0.00,meteobridge,2013-06-03 08:06:00,
2013-06-03 04:11:00,42.3,41.2,29.99,East,90,0.0,0.0,96,0.00,,,0.00,meteobridge,2013-06-03 08:11:00,
2013-06-03 04:17:00,41.9,40.8,29.99,North,0,0.0,0.7,96,0.00,,,0.00,meteobridge,2013-06-03 08:17:00,
2013-06-03 04:23:00,41.9,40.8,29.99,East,90,0.0,0.0,96,0.00,,,0.00,meteobridge,2013-06-03 08:23:00,
2013-06-03 04:28:00,42.1,41.0,29.99,East,90,0.0,2.2,96,0.00,,,0.00,meteobridge,2013-06-03 08:28:00,
2013-06-03 04:34:00,42.1,41.0,29.99,East,90,0.7,0.7,96,0.00,,,0.00,meteobridge,2013-06-03 08:34:00,
2013-06-03 04:40:00,42.1,41.0,29.99,East,90,0.7,1.6,96,0.00,,,0.00,meteobridge,2013-06-03 08:40:00,
2013-06-03 04:45:00,41.9,40.8,29.99,East,90,0.0,0.0,96,0.00,,,0.00,meteobridge,2013-06-03 08:45:00,
2013-06-03 04:51:00,41.9,40.8,29.99,East,90,0.7,0.7,96,0.00,,,0.00,meteobridge,2013-06-03 08:51:00,
2013-06-03 04:56:00,41.5,40.5,29.98,East,90,0.0,0.0,96,0.00,,,0.00,meteobridge,2013-06-03 08:56:00,
2013-06-03 05:01:00,41.5,40.5,29.98,East,90,0.0,0.0,96,0.00,,,0.00,meteobridge,2013-06-03 09:01:00,
2013-06-03 05:07:00,41.5,40.5,29.98,East,90,1.6,1.6,96,0.00,,,0.00,meteobridge,2013-06-03 09:07:00,
2013-06-03 05:13:00,41.5,40.5,29.99,East,90,1.6,1.6,96,0.00,,,0.00,meteobridge,2013-06-03 09:13:00,
2013-06-03 05:18:00,41.5,40.5,29.99,East,90,0.7,1.6,96,0.00,,,0.00,meteobridge,2013-06-03 09:18:00,
2013-06-03 05:24:00,41.5,40.5,29.99,East,90,0.0,0.0,96,0.00,,,0.00,meteobridge,2013-06-03 09:24:00,
2013-06-03 05:30:00,41.4,40.6,29.99,East,90,0.0,0.0,97,0.00,,,0.00,meteobridge,2013-06-03 09:30:00,
2013-06-03 05:35:00,41.4,40.6,29.99,East,90,0.0,2.2,97,0.00,,,0.00,meteobridge,2013-06-03 09:35:00,
2013-06-03 05:42:00,41.2,40.5,30.00,East,90,0.0,0.0,97,0.00,,,0.00,meteobridge,2013-06-03 09:42:00,
2013-06-03 05:47:00,41.4,40.6,30.00,East,90,0.0,0.0,97,0.00,,,0.00,meteobridge,2013-06-03 09:47:00,
2013-06-03 05:53:00,41.2,40.5,30.00,East,90,0.0,0.0,97,0.00,,,0.00,meteobridge,2013-06-03 09:53:00,
2013-06-03 05:58:00,41.2,40.5,30.00,East,90,0.0,0.0,97,0.00,,,0.00,meteobridge,2013-06-03 09:58:00,
2013-06-03 06:04:00,41.2,40.5,30.00,East,90,0.0,0.0,97,0.00,,,0.00,meteobridge,2013-06-03 10:04:00,
2013-06-03 06:10:00,41.5,40.8,30.01,East,90,1.6,3.1,97,0.00,,,0.00,meteobridge,2013-06-03 10:10:00,
2013-06-03 06:15:00,41.5,40.8,30.01,East,90,1.6,1.6,97,0.00,,,0.00,meteobridge,2013-06-03 10:15:00,
2013-06-03 06:21:00,41.5,40.8,30.00,East,90,0.7,0.7,97,0.00,,,0.00,meteobridge,2013-06-03 10:21:00,
2013-06-03 06:27:00,41.4,40.6,30.01,East,90,0.0,0.0,97,0.00,,,0.00,meteobridge,2013-06-03 10:27:00,
2013-06-03 06:32:00,41.4,40.6,30.01,East,90,1.6,1.6,97,0.00,,,0.00,meteobridge,2013-06-03 10:32:00,
2013-06-03 06:38:00,41.4,40.6,30.01,East,90,0.0,0.7,97,0.00,,,0.00,meteobridge,2013-06-03 10:38:00,
2013-06-03 06:44:00,41.5,40.8,30.01,East,90,0.0,0.7,97,0.00,,,0.00,meteobridge,2013-06-03 10:44:00,
2013-06-03 06:49:00,41.5,40.8,30.01,East,90,0.0,0.0,97,0.00,,,0.00,meteobridge,2013-06-03 10:49:00,
2013-06-03 06:55:00,41.7,41.0,30.01,East,90,0.0,0.7,97,0.00,,,0.00,meteobridge,2013-06-03 10:55:00,
2013-06-03 07:00:00,41.7,41.0,30.01,East,90,0.0,0.0,97,0.00,,,0.00,meteobridge,2013-06-03 11:00:00,
2013-06-03 07:06:00,42.1,41.4,30.02,East,90,0.7,0.7,97,0.00,,,0.00,meteobridge,2013-06-03 11:06:00,
2013-06-03 07:12:00,42.4,41.7,30.02,East,90,0.0,0.7,97,0.00,,,0.00,meteobridge,2013-06-03 11:12:00,
2013-06-03 07:17:00,42.8,41.7,30.02,East,90,0.0,1.6,96,0.00,,,0.00,meteobridge,2013-06-03 11:17:00,
2013-06-03 07:23:00,43.2,42.1,30.02,East,90,0.7,0.7,96,0.00,,,0.00,meteobridge,2013-06-03 11:23:00,
2013-06-03 07:29:00,45.0,43.7,30.02,East,90,0.0,0.0,95,0.00,,,0.00,meteobridge,2013-06-03 11:29:00,
2013-06-03 07:34:00,46.8,45.3,30.02,East,90,0.7,0.7,95,0.00,,,0.00,meteobridge,2013-06-03 11:34:00,
2013-06-03 07:40:00,45.3,43.7,30.03,East,90,0.0,0.0,94,0.00,,,0.00,meteobridge,2013-06-03 11:40:00,
2013-06-03 07:46:00,44.8,42.8,30.03,East,90,0.0,0.0,93,0.00,,,0.00,meteobridge,2013-06-03 11:46:00,
2013-06-03 07:51:00,45.3,43.2,30.03,SE,135,0.0,0.0,92,0.00,,,0.00,meteobridge,2013-06-03 11:51:00,
2013-06-03 07:57:00,45.7,43.2,30.03,NE,45,1.6,3.1,91,0.00,,,0.00,meteobridge,2013-06-03 11:57:00,
2013-06-03 08:03:00,46.4,43.7,30.03,East,90,0.0,0.0,90,0.00,,,0.00,meteobridge,2013-06-03 12:03:00,
2013-06-03 08:08:00,48.0,44.4,30.03,SE,135,2.2,2.2,87,0.00,,,0.00,meteobridge,2013-06-03 12:08:00,
2013-06-03 08:14:00,50.4,45.3,30.03,East,90,3.1,3.1,83,0.00,,,0.00,meteobridge,2013-06-03 12:14:00,
2013-06-03 08:19:00,49.3,43.3,30.03,South,180,1.6,3.1,80,0.00,,,0.00,meteobridge,2013-06-03 12:19:00,
2013-06-03 08:25:00,50.5,43.9,30.03,North,0,1.6,1.6,78,0.00,,,0.00,meteobridge,2013-06-03 12:25:00,
2013-06-03 08:31:00,51.8,44.4,30.03,SW,225,0.0,1.6,76,0.00,,,0.00,meteobridge,2013-06-03 12:31:00,
2013-06-03 08:36:00,50.7,43.2,30.03,North,0,1.6,3.8,75,0.00,,,0.00,meteobridge,2013-06-03 12:36:00,
2013-06-03 08:42:00,52.3,44.2,30.03,South,180,3.1,3.1,74,0.00,,,0.00,meteobridge,2013-06-03 12:42:00,
2013-06-03 08:48:00,53.8,45.0,30.03,East,90,0.0,0.0,72,0.00,,,0.00,meteobridge,2013-06-03 12:48:00,
2013-06-03 08:53:00,53.1,44.2,30.04,North,0,2.2,2.2,72,0.00,,,0.00,meteobridge,2013-06-03 12:53:00,
2013-06-03 08:59:00,54.1,44.6,30.03,South,180,0.0,2.2,70,0.00,,,0.00,meteobridge,2013-06-03 12:59:00,
2013-06-03 09:05:00,52.0,41.7,30.03,East,90,3.1,5.4,68,0.00,,,0.00,meteobridge,2013-06-03 13:05:00,
2013-06-03 09:10:00,54.7,44.8,30.03,South,180,2.2,2.2,69,0.00,,,0.00,meteobridge,2013-06-03 13:10:00,
2013-06-03 09:16:00,53.4,42.3,30.03,South,180,3.1,4.5,66,0.00,,,0.00,meteobridge,2013-06-03 13:16:00,
2013-06-03 09:21:00,56.5,45.3,30.04,SE,135,0.7,3.1,66,0.00,,,0.00,meteobridge,2013-06-03 13:21:00,
2013-06-03 09:27:00,55.8,44.2,30.04,East,90,3.8,3.8,65,0.00,,,0.00,meteobridge,2013-06-03 13:27:00,
2013-06-03 09:33:00,54.5,41.4,30.04,NE,45,2.2,4.5,61,0.00,,,0.00,meteobridge,2013-06-03 13:33:00,
2013-06-03 09:38:00,56.5,41.9,30.04,South,180,3.1,3.1,58,0.00,,,0.00,meteobridge,2013-06-03 13:38:00,
2013-06-03 09:44:00,56.7,42.4,30.04,North,0,1.6,4.5,59,0.00,,,0.00,meteobridge,2013-06-03 13:44:00,
2013-06-03 09:50:00,56.1,41.5,30.04,East,90,3.1,3.1,58,0.00,,,0.00,meteobridge,2013-06-03 13:50:00,
2013-06-03 09:55:00,58.6,42.4,30.05,North,0,1.6,1.6,55,0.00,,,0.00,meteobridge,2013-06-03 13:55:00,
2013-06-03 10:01:00,58.3,42.3,30.05,West,270,3.1,3.1,55,0.00,,,0.00,meteobridge,2013-06-03 14:01:00,
2013-06-03 10:07:00,58.3,42.3,30.05,West,270,3.1,3.1,55,0.00,,,0.00,meteobridge,2013-06-03 14:07:00,
2013-06-03 10:12:00,58.5,42.8,30.05,East,90,3.1,3.1,56,0.00,,,0.00,meteobridge,2013-06-03 14:12:00,
2013-06-03 10:18:00,58.1,42.4,30.04,SE,135,3.1,6.0,56,0.00,,,0.00,meteobridge,2013-06-03 14:18:00,
2013-06-03 10:23:00,58.1,42.1,30.04,North,0,3.1,3.8,55,0.00,,,0.00,meteobridge,2013-06-03 14:23:00,
2013-06-03 10:29:00,58.1,41.5,30.05,NE,45,3.8,5.4,54,0.00,,,0.00,meteobridge,2013-06-03 14:29:00,
2013-06-03 10:35:00,59.9,42.8,30.05,West,270,2.2,3.1,53,0.00,,,0.00,meteobridge,2013-06-03 14:35:00,
2013-06-03 10:40:00,59.2,42.1,30.05,West,270,4.5,4.5,53,0.00,,,0.00,meteobridge,2013-06-03 14:40:00,
2013-06-03 10:46:00,59.4,42.8,30.05,West,270,4.5,4.5,54,0.00,,,0.00,meteobridge,2013-06-03 14:46:00,
2013-06-03 10:51:00,60.1,43.9,30.05,North,0,2.2,3.8,55,0.00,,,0.00,meteobridge,2013-06-03 14:51:00,
2013-06-03 10:57:00,61.0,43.2,30.05,NE,45,2.2,3.1,52,0.00,,,0.00,meteobridge,2013-06-03 14:57:00,
2013-06-03 11:02:00,61.9,43.0,30.04,NW,315,6.0,6.0,50,0.00,,,0.00,meteobridge,2013-06-03 15:02:00,
2013-06-03 11:08:00,60.3,43.0,30.04,West,270,4.5,4.5,53,0.00,,,0.00,meteobridge,2013-06-03 15:08:00,
2013-06-03 11:14:00,59.2,42.1,30.05,South,180,5.4,7.6,53,0.00,,,0.00,meteobridge,2013-06-03 15:14:00,
2013-06-03 11:19:00,59.2,42.1,30.05,West,270,3.8,5.4,53,0.00,,,0.00,meteobridge,2013-06-03 15:19:00,
2013-06-03 11:25:00,61.7,41.9,30.04,NW,315,3.1,3.1,48,0.00,,,0.00,meteobridge,2013-06-03 15:25:00,
2013-06-03 11:30:00,61.2,43.3,30.04,West,270,3.8,3.8,52,0.00,,,0.00,meteobridge,2013-06-03 15:30:00,
2013-06-03 11:36:00,63.3,44.4,30.05,West,270,3.8,3.8,50,0.00,,,0.00,meteobridge,2013-06-03 15:36:00,
2013-06-03 11:41:00,62.2,42.3,30.05,West,270,2.2,2.2,48,0.00,,,0.00,meteobridge,2013-06-03 15:41:00,
2013-06-03 11:46:00,61.5,43.2,30.05,NW,315,5.4,6.0,51,0.00,,,0.00,meteobridge,2013-06-03 15:46:00,
2013-06-03 11:52:00,62.1,42.6,30.05,NW,315,5.4,5.4,49,0.00,,,0.00,meteobridge,2013-06-03 15:52:00,
2013-06-03 11:57:00,62.2,43.9,30.05,West,270,3.1,3.8,51,0.00,,,0.00,meteobridge,2013-06-03 15:57:00,
2013-06-03 12:02:00,63.9,44.2,30.05,West,270,5.4,5.4,49,0.00,,,0.00,meteobridge,2013-06-03 16:02:00,
2013-06-03 12:08:00,64.4,43.7,30.05,South,180,2.2,5.4,47,0.00,,,0.00,meteobridge,2013-06-03 16:08:00,
2013-06-03 12:13:00,64.2,43.0,30.04,East,90,4.5,6.9,46,0.00,,,0.00,meteobridge,2013-06-03 16:13:00,
2013-06-03 12:19:00,64.9,43.2,30.04,North,0,3.1,5.4,45,0.00,,,0.00,meteobridge,2013-06-03 16:19:00,
2013-06-03 12:25:00,65.7,43.7,30.04,NE,45,2.2,3.8,45,0.00,,,0.00,meteobridge,2013-06-03 16:25:00,
2013-06-03 12:30:00,64.6,42.3,30.05,South,180,4.5,6.9,44,0.00,,,0.00,meteobridge,2013-06-03 16:30:00,
2013-06-03 12:36:00,66.2,44.2,30.04,SE,135,3.1,3.1,45,0.00,,,0.00,meteobridge,2013-06-03 16:36:00,
2013-06-03 12:42:00,65.3,43.3,30.04,North,0,2.2,7.6,45,0.00,,,0.00,meteobridge,2013-06-03 16:42:00,
2013-06-03 12:47:00,66.7,42.3,30.04,North,0,3.1,4.5,41,0.00,,,0.00,meteobridge,2013-06-03 16:47:00,
2013-06-03 12:53:00,66.2,41.2,30.04,SW,225,6.0,6.0,40,0.00,,,0.00,meteobridge,2013-06-03 16:53:00,
2013-06-03 12:59:00,68.2,44.2,30.04,SW,225,3.8,3.8,42,0.00,,,0.00,meteobridge,2013-06-03 16:59:00,
2013-06-03 13:04:00,66.2,39.9,30.04,West,270,3.1,3.8,38,0.00,,,0.00,meteobridge,2013-06-03 17:04:00,
2013-06-03 13:10:00,65.1,43.3,30.04,South,180,3.1,6.9,45,0.00,,,0.00,meteobridge,2013-06-03 17:10:00,
2013-06-03 13:15:00,65.8,43.9,30.03,West,270,3.1,4.5,45,0.00,,,0.00,meteobridge,2013-06-03 17:15:00,
2013-06-03 13:21:00,69.6,45.5,30.03,SE,135,3.8,3.8,42,0.00,,,0.00,meteobridge,2013-06-03 17:21:00,
2013-06-03 13:27:00,65.7,43.2,30.03,West,270,7.6,7.6,44,0.00,,,0.00,meteobridge,2013-06-03 17:27:00,
2013-06-03 13:32:00,64.0,43.3,30.03,North,0,3.1,4.5,47,0.00,,,0.00,meteobridge,2013-06-03 17:32:00,
2013-06-03 13:38:00,67.1,44.4,30.03,West,270,3.1,4.5,44,0.00,,,0.00,meteobridge,2013-06-03 17:38:00,
2013-06-03 13:44:00,63.9,41.0,30.03,West,270,4.5,6.9,43,0.00,,,0.00,meteobridge,2013-06-03 17:44:00,
2013-06-03 13:49:00,67.1,43.2,30.02,West,270,2.2,5.4,42,0.00,,,0.00,meteobridge,2013-06-03 17:49:00,
2013-06-03 13:55:00,68.4,43.7,30.02,South,180,4.5,4.5,41,0.00,,,0.00,meteobridge,2013-06-03 17:55:00,
2013-06-03 14:01:00,64.0,43.9,30.02,North,0,6.0,9.2,48,0.00,,,0.00,meteobridge,2013-06-03 18:01:00,
2013-06-03 14:06:00,64.0,43.9,30.01,North,0,6.0,6.0,48,0.00,,,0.00,meteobridge,2013-06-03 18:06:00,
2013-06-03 14:12:00,62.8,46.9,30.02,West,270,5.4,5.4,56,0.00,,,0.00,meteobridge,2013-06-03 18:12:00,
2013-06-03 14:18:00,62.4,46.0,30.01,South,180,6.0,6.9,55,0.00,,,0.00,meteobridge,2013-06-03 18:18:00,
2013-06-03 14:23:00,63.0,46.0,30.02,NW,315,6.0,6.0,54,0.00,,,0.00,meteobridge,2013-06-03 18:23:00,
2013-06-03 14:29:00,67.5,50.7,30.01,West,270,3.1,5.4,55,0.00,,,0.00,meteobridge,2013-06-03 18:29:00,
2013-06-03 14:34:00,63.3,46.4,30.01,South,180,5.4,7.6,54,0.00,,,0.00,meteobridge,2013-06-03 18:34:00,
2013-06-03 14:40:00,68.2,49.3,30.01,NW,315,3.8,4.5,51,0.00,,,0.00,meteobridge,2013-06-03 18:40:00,
2013-06-03 14:46:00,63.5,46.0,30.00,NW,315,6.9,9.2,53,0.00,,,0.00,meteobridge,2013-06-03 18:46:00,
2013-06-03 14:51:00,66.7,48.6,30.00,NW,315,6.0,6.0,52,0.00,,,0.00,meteobridge,2013-06-03 18:51:00,
2013-06-03 14:57:00,65.3,46.2,30.00,West,270,4.5,6.9,50,0.00,,,0.00,meteobridge,2013-06-03 18:57:00,
2013-06-03 15:03:00,65.7,46.6,30.00,NW,315,6.0,6.0,50,0.00,,,0.00,meteobridge,2013-06-03 19:03:00,
2013-06-03 15:08:00,63.9,47.3,30.00,NW,315,4.5,8.3,55,0.00,,,0.00,meteobridge,2013-06-03 19:08:00,
2013-06-03 15:14:00,63.5,47.1,30.00,West,270,6.9,9.8,55,0.00,,,0.00,meteobridge,2013-06-03 19:14:00,
2013-06-03 15:20:00,64.8,47.3,30.00,NW,315,7.6,7.6,53,0.00,,,0.00,meteobridge,2013-06-03 19:20:00,
2013-06-03 15:25:00,63.9,46.9,29.99,NW,315,6.0,7.6,54,0.00,,,0.00,meteobridge,2013-06-03 19:25:00,
2013-06-03 15:31:00,63.1,45.7,29.99,NW,315,11.4,11.4,53,0.00,,,0.00,meteobridge,2013-06-03 19:31:00,
2013-06-03 15:36:00,63.1,45.7,30.00,NW,315,5.4,8.3,53,0.00,,,0.00,meteobridge,2013-06-03 19:36:00,
2013-06-03 15:41:00,63.3,46.9,30.00,North,0,7.6,9.2,55,0.00,,,0.00,meteobridge,2013-06-03 19:41:00,
2013-06-03 15:47:00,63.0,45.5,30.00,NW,315,8.3,9.8,53,0.00,,,0.00,meteobridge,2013-06-03 19:47:00,
2013-06-03 15:52:00,64.8,47.7,30.00,NW,315,3.8,5.4,54,0.00,,,0.00,meteobridge,2013-06-03 19:52:00,
2013-06-03 15:58:00,63.7,46.2,30.01,West,270,5.4,7.6,53,0.00,,,0.00,meteobridge,2013-06-03 19:58:00,
2013-06-03 16:03:00,63.3,45.9,30.01,NW,315,10.7,10.7,53,0.00,,,0.00,meteobridge,2013-06-03 20:03:00,
2013-06-03 16:09:00,63.3,45.9,30.00,NW,315,9.2,9.2,53,0.00,,,0.00,meteobridge,2013-06-03 20:09:00,
2013-06-03 16:15:00,63.0,45.5,30.00,NW,315,6.0,9.8,53,0.00,,,0.00,meteobridge,2013-06-03 20:15:00,
2013-06-03 16:20:00,63.7,47.3,30.01,NW,315,3.8,10.7,55,0.00,,,0.00,meteobridge,2013-06-03 20:20:00,
2013-06-03 16:26:00,62.1,44.2,30.01,NW,315,9.8,10.7,52,0.00,,,0.00,meteobridge,2013-06-03 20:26:00,
2013-06-03 16:31:00,63.7,46.2,30.01,NW,315,9.2,9.2,53,0.00,,,0.00,meteobridge,2013-06-03 20:31:00,
2013-06-03 16:36:00,63.7,46.2,30.01,NW,315,6.0,9.2,53,0.00,,,0.00,meteobridge,2013-06-03 20:36:00,
2013-06-03 16:42:00,62.6,44.8,30.01,NW,315,6.9,7.6,52,0.00,,,0.00,meteobridge,2013-06-03 20:42:00,
2013-06-03 16:48:00,64.8,46.8,30.01,NW,315,9.2,9.2,52,0.00,,,0.00,meteobridge,2013-06-03 20:48:00,
2013-06-03 16:53:00,68.9,48.4,30.01,North,0,3.8,3.8,48,0.00,,,0.00,meteobridge,2013-06-03 20:53:00,
2013-06-03 16:59:00,65.5,46.4,30.01,NW,315,7.6,7.6,50,0.00,,,0.00,meteobridge,2013-06-03 20:59:00,
2013-06-03 17:05:00,63.5,45.5,30.01,NW,315,5.4,8.3,52,0.00,,,0.00,meteobridge,2013-06-03 21:05:00,
2013-06-03 17:10:00,66.2,48.6,30.01,West,270,6.0,6.9,53,0.00,,,0.00,meteobridge,2013-06-03 21:10:00,
2013-06-03 17:16:00,63.1,45.1,30.01,NW,315,6.9,9.2,52,0.00,,,0.00,meteobridge,2013-06-03 21:16:00,
2013-06-03 17:21:00,64.6,45.5,30.01,North,0,5.4,6.0,50,0.00,,,0.00,meteobridge,2013-06-03 21:21:00,
2013-06-03 17:27:00,63.0,44.1,30.01,North,0,5.4,7.6,50,0.00,,,0.00,meteobridge,2013-06-03 21:27:00,
2013-06-03 17:33:00,67.3,45.9,30.01,West,270,1.6,3.8,46,0.00,,,0.00,meteobridge,2013-06-03 21:33:00,
2013-06-03 17:38:00,65.3,44.1,30.01,NW,315,4.5,6.0,46,0.00,,,0.00,meteobridge,2013-06-03 21:38:00,
2013-06-03 17:44:00,64.6,43.3,30.00,West,270,6.9,6.9,46,0.00,,,0.00,meteobridge,2013-06-03 21:44:00,
2013-06-03 17:50:00,63.7,43.2,30.00,West,270,10.7,10.7,47,0.00,,,0.00,meteobridge,2013-06-03 21:50:00,
2013-06-03 17:55:00,63.9,42.6,30.00,West,270,3.8,4.5,46,0.00,,,0.00,meteobridge,2013-06-03 21:55:00,
2013-06-03 18:01:00,66.2,44.2,30.00,West,270,2.2,2.2,45,0.00,,,0.00,meteobridge,2013-06-03 22:01:00,
2013-06-03 18:07:00,66.2,44.2,29.99,West,270,2.2,2.2,45,0.00,,,0.00,meteobridge,2013-06-03 22:07:00,
2013-06-03 18:12:00,65.3,43.3,30.00,North,0,2.2,6.0,45,0.00,,,0.00,meteobridge,2013-06-03 22:12:00,
2013-06-03 18:18:00,66.4,43.9,29.99,West,270,2.2,3.8,44,0.00,,,0.00,meteobridge,2013-06-03 22:18:00,
2013-06-03 18:24:00,64.8,41.7,29.99,South,180,3.1,6.9,43,0.00,,,0.00,meteobridge,2013-06-03 22:24:00,
2013-06-03 18:29:00,68.2,44.8,29.99,North,0,3.8,3.8,43,0.00,,,0.00,meteobridge,2013-06-03 22:29:00,
2013-06-03 18:35:00,66.4,44.4,29.99,NW,315,6.0,6.0,45,0.00,,,0.00,meteobridge,2013-06-03 22:35:00,
2013-06-03 18:40:00,67.3,45.1,29.99,North,0,5.4,5.4,45,0.00,,,0.00,meteobridge,2013-06-03 22:40:00,
2013-06-03 18:46:00,68.5,45.1,30.00,West,270,3.8,3.8,43,0.00,,,0.00,meteobridge,2013-06-03 22:46:00,
2013-06-03 18:52:00,66.2,43.7,30.00,NW,315,6.9,6.9,44,0.00,,,0.00,meteobridge,2013-06-03 22:52:00,
2013-06-03 18:57:00,66.6,44.1,30.00,NW,315,3.8,4.5,44,0.00,,,0.00,meteobridge,2013-06-03 22:57:00,
2013-06-03 19:03:00,65.7,43.7,30.00,North,0,3.1,3.1,45,0.00,,,0.00,meteobridge,2013-06-03 23:03:00,
2013-06-03 19:09:00,65.1,43.9,30.00,NW,315,4.5,4.5,46,0.00,,,0.00,meteobridge,2013-06-03 23:09:00,
2013-06-03 19:14:00,65.1,43.3,30.00,NW,315,3.1,4.5,45,0.00,,,0.00,meteobridge,2013-06-03 23:14:00,
2013-06-03 19:20:00,63.7,41.4,30.00,NW,315,3.8,5.4,44,0.00,,,0.00,meteobridge,2013-06-03 23:20:00,
2013-06-03 19:26:00,64.6,43.3,30.01,NW,315,1.6,1.6,46,0.00,,,0.00,meteobridge,2013-06-03 23:26:00,
2013-06-03 19:31:00,64.0,41.2,30.01,West,270,1.6,1.6,43,0.00,,,0.00,meteobridge,2013-06-03 23:31:00,
2013-06-03 19:37:00,63.7,41.4,30.01,South,180,2.2,3.8,44,0.00,,,0.00,meteobridge,2013-06-03 23:37:00,
2013-06-03 19:42:00,63.9,42.1,30.01,NW,315,2.2,2.2,45,0.00,,,0.00,meteobridge,2013-06-03 23:42:00,
2013-06-03 19:48:00,63.7,40.1,30.01,North,0,0.0,1.6,42,0.00,,,0.00,meteobridge,2013-06-03 23:48:00,
2013-06-03 19:54:00,62.4,42.4,30.01,South,180,3.8,3.8,48,0.00,,,0.00,meteobridge,2013-06-03 23:54:00,
2013-06-03 19:59:00,61.7,42.3,30.01,North,0,1.6,1.6,49,0.00,,,0.00,meteobridge,2013-06-03 23:59:00,
2013-06-03 20:05:00,61.7,42.3,30.01,North,0,1.6,1.6,49,0.00,,,0.00,meteobridge,2013-06-04 00:05:00,
2013-06-03 20:11:00,61.9,41.4,30.01,East,90,0.0,1.6,47,0.00,,,0.00,meteobridge,2013-06-04 00:11:00,
2013-06-03 20:16:00,60.8,41.0,30.01,East,90,0.7,2.2,48,0.00,,,0.00,meteobridge,2013-06-04 00:16:00,
2013-06-03 20:22:00,60.3,42.6,30.01,East,90,1.6,1.6,52,0.00,,,0.00,meteobridge,2013-06-04 00:22:00,
2013-06-03 20:28:00,59.9,42.8,30.01,East,90,0.0,0.7,53,0.00,,,0.00,meteobridge,2013-06-04 00:28:00,
2013-06-03 20:33:00,59.9,42.3,30.01,East,90,0.7,0.7,52,0.00,,,0.00,meteobridge,2013-06-04 00:33:00,
2013-06-03 20:39:00,58.8,42.6,30.01,East,90,1.6,3.1,55,0.00,,,0.00,meteobridge,2013-06-04 00:39:00,
2013-06-03 20:44:00,57.9,42.8,30.01,East,90,2.2,2.2,57,0.00,,,0.00,meteobridge,2013-06-04 00:44:00,
2013-06-03 20:50:00,57.4,42.3,30.01,East,90,1.6,1.6,57,0.00,,,0.00,meteobridge,2013-06-04 00:50:00,
2013-06-03 20:56:00,56.8,43.2,30.01,East,90,1.6,1.6,60,0.00,,,0.00,meteobridge,2013-06-04 00:56:00,
2013-06-03 21:02:00,55.9,42.6,30.01,East,90,0.7,1.6,61,0.00,,,0.00,meteobridge,2013-06-04 01:02:00,
2013-06-03 21:08:00,55.6,42.8,30.02,East,90,0.0,0.0,62,0.00,,,0.00,meteobridge,2013-06-04 01:08:00,
2013-06-03 21:13:00,55.4,43.3,30.02,East,90,1.6,1.6,64,0.00,,,0.00,meteobridge,2013-06-04 01:13:00,
2013-06-03 21:19:00,54.3,42.8,30.02,East,90,1.6,3.1,65,0.00,,,0.00,meteobridge,2013-06-04 01:19:00,
2013-06-03 21:25:00,54.0,42.4,30.02,East,90,0.0,1.6,65,0.00,,,0.00,meteobridge,2013-06-04 01:25:00,
2013-06-03 21:30:00,53.6,42.4,30.02,East,90,0.0,0.7,66,0.00,,,0.00,meteobridge,2013-06-04 01:30:00,
2013-06-03 21:36:00,53.2,43.0,30.03,East,90,1.6,2.2,68,0.00,,,0.00,meteobridge,2013-06-04 01:36:00,
2013-06-03 21:42:00,52.7,42.8,30.03,East,90,0.7,1.6,69,0.00,,,0.00,meteobridge,2013-06-04 01:42:00,
2013-06-03 21:47:00,52.5,43.0,30.03,East,90,0.0,0.7,70,0.00,,,0.00,meteobridge,2013-06-04 01:47:00,
2013-06-03 21:53:00,52.2,42.6,30.03,East,90,0.0,0.0,70,0.00,,,0.00,meteobridge,2013-06-04 01:53:00,
2013-06-03 21:59:00,52.0,42.4,30.03,East,90,0.0,0.0,70,0.00,,,0.00,meteobridge,2013-06-04 01:59:00,
2013-06-03 22:04:00,52.0,42.4,30.04,East,90,0.0,0.0,70,0.00,,,0.00,meteobridge,2013-06-04 02:04:00,
2013-06-03 22:10:00,51.4,43.2,30.04,East,90,3.1,3.1,73,0.00,,,0.00,meteobridge,2013-06-04 02:10:00,
2013-06-03 22:15:00,50.9,43.0,30.04,East,90,3.1,3.8,74,0.00,,,0.00,meteobridge,2013-06-04 02:15:00,
2013-06-03 22:21:00,50.7,43.2,30.04,East,90,0.0,0.0,75,0.00,,,0.00,meteobridge,2013-06-04 02:21:00,
2013-06-03 22:26:00,50.4,42.8,30.04,East,90,1.6,2.2,75,0.00,,,0.00,meteobridge,2013-06-04 02:26:00,
2013-06-03 22:32:00,50.2,43.3,30.04,East,90,1.6,1.6,77,0.00,,,0.00,meteobridge,2013-06-04 02:32:00,
2013-06-03 22:37:00,50.0,43.3,30.04,East,90,1.6,1.6,78,0.00,,,0.00,meteobridge,2013-06-04 02:37:00,
2013-06-03 22:43:00,49.6,44.1,30.04,East,90,1.6,1.6,81,0.00,,,0.00,meteobridge,2013-06-04 02:43:00,
2013-06-03 22:49:00,49.5,44.2,30.04,East,90,1.6,1.6,82,0.00,,,0.00,meteobridge,2013-06-04 02:49:00,
2013-06-03 22:54:00,49.1,44.2,30.05,East,90,3.1,3.1,83,0.00,,,0.00,meteobridge,2013-06-04 02:54:00,
2013-06-03 23:00:00,48.6,43.9,30.04,East,90,2.2,2.2,84,0.00,,,0.00,meteobridge,2013-06-04 03:00:00,
2013-06-03 23:05:00,48.6,43.9,30.05,East,90,0.0,1.6,84,0.00,,,0.00,meteobridge,2013-06-04 03:05:00,
2013-06-03 23:11:00,48.6,43.9,30.05,East,90,0.0,0.0,84,0.00,,,0.00,meteobridge,2013-06-04 03:11:00,
2013-06-03 23:17:00,48.2,43.9,30.04,East,90,0.0,1.6,85,0.00,,,0.00,meteobridge,2013-06-04 03:17:00,
2013-06-03 23:22:00,48.0,44.1,30.04,East,90,1.6,1.6,86,0.00,,,0.00,meteobridge,2013-06-04 03:22:00,
2013-06-03 23:28:00,47.8,43.9,30.04,East,90,0.0,1.6,86,0.00,,,0.00,meteobridge,2013-06-04 03:28:00,
2013-06-03 23:34:00,47.8,44.2,30.04,East,90,0.0,0.0,87,0.00,,,0.00,meteobridge,2013-06-04 03:34:00,
2013-06-03 23:39:00,47.8,44.2,30.04,East,90,1.6,1.6,87,0.00,,,0.00,meteobridge,2013-06-04 03:39:00,
2013-06-03 23:45:00,47.8,44.4,30.04,East,90,1.6,1.6,88,0.00,,,0.00,meteobridge,2013-06-04 03:45:00,
2013-06-03 23:51:00,47.7,44.2,30.04,East,90,1.6,2.2,88,0.00,,,0.00,meteobridge,2013-06-04 03:51:00,
2013-06-03 23:56:00,47.3,43.9,30.04,East,90,1.6,1.6,88,0.00,,,0.00,meteobridge,2013-06-04 03:56:00,